KD7TTL Weather Reports


time (UTC)temp
F
wind
direction
speed
knots
gust
knots
rain 1hr
in
rain 24hr
in
rain mn
in
humidity
%
barometer
mb
20260503194506 74 59 4.3 9.6 0.00 0.00 0.00 46 1014.4
20260503194002 74 80 0.9 6.1 0.00 0.00 0.00 50 1014.4
20260503193503 74 111 1.7 6.1 0.00 0.00 0.00 53 1014.5
20260503193003 74 93 0.9 6.1 0.00 0.00 0.00 49 1014.6
20260503192502 74 237 1.7 6.1 0.00 0.00 0.00 53 1014.6
20260503192005 74 72 2.6 5.2 0.00 0.00 0.00 54 1014.7
20260503191505 74 282 1.7 7.8 0.00 0.00 0.00 57 1014.7
20260503191007 73 193 1.7 8.7 0.00 0.00 0.00 55 1014.7
20260503190503 73 31 4.3 8.7 0.00 0.00 0.00 56 1014.7
20260503190002 73 85 2.6 6.1 0.00 0.00 0.00 52 1014.8
20260503185503 73 196 1.7 5.2 0.00 0.00 0.00 62 1014.8
20260503185003 72 178 0.9 8.7 0.00 0.00 0.00 59 1014.9
20260503184505 72 211 1.7 11.3 0.00 0.00 0.00 58 1015.0
20260503184003 72 55 5.2 11.3 0.00 0.00 0.00 59 1015.1
20260503183502 72 265 0.9 5.2 0.00 0.00 0.00 63 1015.1
20260503183002 71 232 0.9 5.2 0.00 0.00 0.00 62 1015.2
20260503182502 71 51 2.6 7.8 0.00 0.00 0.00 59 1015.3
20260503182002 71 30 1.7 7.8 0.00 0.00 0.00 61 1015.3
20260503181503 71 45 1.7 6.1 0.00 0.00 0.00 62 1015.3
20260503181003 71 43 1.7 7.0 0.00 0.00 0.00 60 1015.3
20260503180503 71 341 1.7 7.0 0.00 0.00 0.00 62 1015.3
20260503180005 70 9 1.7 7.0 0.00 0.00 0.00 63 1015.3
20260503175502 70 26 2.6 6.1 0.00 0.00 0.00 61 1015.4
20260503175003 70 291 2.6 6.1 0.00 0.00 0.00 59 1015.6
20260503174502 70 178 1.7 4.3 0.00 0.00 0.00 61 1015.5
20260503174003 70 111 1.7 5.2 0.00 0.00 0.00 60 1015.5
20260503173503 70 38 1.7 5.2 0.00 0.00 0.00 61 1015.5
20260503173003 69 232 0.9 3.5 0.00 0.00 0.00 64 1015.5
20260503172502 69 68 0.0 4.3 0.00 0.00 0.00 63 1015.5
20260503172002 68 41 2.6 4.3 0.00 0.00 0.00 61 1015.5
20260503171502 68 250 0.9 4.3 0.00 0.00 0.00 65 1015.5
20260503171003 67 38 1.7 4.3 0.00 0.00 0.00 62 1015.6
20260503170505 67 93 0.9 5.2 0.00 0.00 0.00 64 1015.5
20260503151009 51 9 0.0 0.9 0.00 0.00 0.00 96 1016.0
20260503150509 50 265 0.0 0.9 0.00 0.00 0.00 96 1016.0
20260503131013 46 51 0.0 0.9 0.00 0.00 0.00 93 1015.5
20260503130509 47 9 0.0 0.9 0.00 0.00 0.00 93 1015.5
20260503110512 48 51 0.0 0.9 0.00 0.00 0.00 92 1015.9
20260503090509 50 68 0.0 0.9 0.00 0.00 0.00 90 1015.9
20260503081531 51 9 0.0 0.9 0.00 0.00 0.00 89 1016.1
20260503081009 51 9 0.0 0.9 0.00 0.00 0.00 88 1016.1
20260503080511 51 309 0.0 0.9 0.00 0.00 0.00 88 1016.1
20260503072507 52 292 0.0 0.9 0.00 0.00 0.00 87 1016.0
20260503072009 52 325 0.0 0.9 0.00 0.00 0.00 87 1016.0
20260503071527 52 309 0.0 0.9 0.00 0.00 0.00 86 1016.0
20260503071009 52 325 0.0 0.9 0.00 0.00 0.00 86 1016.0
20260503070509 52 9 0.0 0.9 0.00 0.00 0.00 85 1016.0
20260503055010 55 61 0.0 0.9 0.00 0.00 0.00 79 1015.8
20260503054528 56 51 0.0 0.9 0.00 0.00 0.00 79 1015.8
20260503054009 56 325 0.0 0.9 0.00 0.00 0.00 78 1015.7
20260503053508 56 309 0.0 0.9 0.00 0.00 0.00 78 1015.7
20260503053029 56 309 0.0 0.9 0.00 0.00 0.00 77 1015.7
20260503052509 57 9 0.0 1.7 0.00 0.00 0.00 77 1015.8
20260503052013 57 309 0.0 1.7 0.00 0.00 0.00 77 1015.8
20260503051524 57 51 0.0 0.9 0.00 0.00 0.00 76 1015.7
20260503051009 58 9 0.0 0.9 0.00 0.00 0.00 75 1015.7
20260503050509 58 51 0.0 0.9 0.00 0.00 0.00 75 1015.6
20260503050035 58 9 0.0 0.9 0.00 0.00 0.00 74 1015.6
20260503045509 58 9 0.0 0.9 0.00 0.00 0.00 73 1015.6
20260503045016 59 319 0.0 0.9 0.00 0.00 0.00 72 1015.6
20260503044503 59 309 0.0 0.9 0.00 0.00 0.00 71 1015.5
20260503044002 60 93 0.0 0.9 0.00 0.00 0.00 69 1015.5
20260503043503 60 51 0.0 0.9 0.00 0.00 0.00 69 1015.4
20260503043002 60 51 0.0 0.9 0.00 0.00 0.00 69 1015.3
20260503042502 60 9 0.0 0.9 0.00 0.00 0.00 68 1015.3
20260503042001 60 9 0.0 0.9 0.00 0.00 0.00 68 1015.2
20260503041507 61 178 0.0 0.9 0.00 0.00 0.00 69 1015.2
20260503041003 62 93 0.0 0.9 0.00 0.00 0.00 67 1015.2
20260503040502 62 51 0.0 0.9 0.00 0.00 0.00 66 1015.2
20260503040005 63 120 0.0 0.9 0.00 0.00 0.00 65 1015.2
20260503035503 63 34 0.0 0.9 0.00 0.00 0.00 63 1015.0
20260503035004 64 9 0.0 1.7 0.00 0.00 0.00 61 1014.9
20260503034504 64 51 0.0 1.7 0.00 0.00 0.00 60 1014.9
20260503034005 64 265 0.0 1.7 0.00 0.00 0.00 59 1014.9
20260503033504 65 9 0.0 1.7 0.00 0.00 0.00 59 1014.8
20260503033004 65 51 0.0 1.7 0.00 0.00 0.00 59 1014.7
20260503032505 65 309 0.0 0.9 0.00 0.00 0.00 57 1014.6
20260503032003 66 265 0.0 0.9 0.00 0.00 0.00 57 1014.7
20260503031516 66 221 0.0 1.7 0.00 0.00 0.00 57 1014.6
20260503031005 66 51 0.0 1.7 0.00 0.00 0.00 56 1014.6
20260503030504 67 9 0.0 0.9 0.00 0.00 0.00 55 1014.4
20260503030003 67 9 0.0 0.9 0.00 0.00 0.00 54 1014.4
20260503025502 67 51 0.0 0.9 0.00 0.00 0.00 54 1014.4
20260503025002 67 248 0.0 1.7 0.00 0.00 0.00 53 1014.4
20260503024507 68 265 0.0 1.7 0.00 0.00 0.00 53 1014.4
20260503024003 68 221 0.0 1.7 0.00 0.00 0.00 53 1014.4
20260503023510 68 51 0.0 1.7 0.00 0.00 0.00 52 1014.4
20260503023004 68 9 0.0 1.7 0.00 0.00 0.00 51 1014.3
20260503022506 68 178 0.0 2.6 0.00 0.00 0.00 51 1014.3
20260503022003 69 265 0.0 3.5 0.00 0.00 0.00 51 1014.3
20260503021506 69 309 0.0 4.3 0.00 0.00 0.00 51 1014.3
20260503021003 69 76 1.7 4.3 0.00 0.00 0.00 50 1014.4
20260503020503 69 41 0.0 4.3 0.00 0.00 0.00 50 1014.3
20260503020004 69 30 0.9 3.5 0.00 0.00 0.00 49 1014.3
20260503015502 70 51 0.0 4.3 0.00 0.00 0.00 49 1014.4
20260503015002 70 9 0.0 7.0 0.00 0.00 0.00 49 1014.4
20260503014503 70 33 2.6 7.0 0.00 0.00 0.00 47 1014.5
20260503014002 70 312 0.9 6.1 0.00 0.00 0.00 47 1014.5
20260503013502 70 19 0.0 5.2 0.00 0.00 0.00 48 1014.5
20260503013009 70 334 0.9 5.2 0.00 0.00 0.00 49 1014.6
20260503012503 71 309 1.7 5.2 0.00 0.00 0.00 48 1014.6
20260503012003 71 31 0.9 6.1 0.00 0.00 0.00 47 1014.7
20260503011504 71 39 0.9 6.1 0.00 0.00 0.00 48 1014.7
20260503011004 71 334 0.9 6.1 0.00 0.00 0.00 49 1014.7
20260503010510 71 32 0.0 6.1 0.00 0.00 0.00 49 1014.8
20260503010028 71 68 1.7 5.2 0.00 0.00 0.00 47 1014.8
20260503005510 71 325 0.9 5.2 0.00 0.00 0.00 49 1014.9
20260503005009 71 330 0.9 8.7 0.00 0.00 0.00 49 1014.9
20260503004524 71 9 0.9 8.7 0.00 0.00 0.00 52 1014.9
20260503004007 72 42 1.7 6.1 0.00 0.00 0.00 51 1015.0
20260503003508 72 301 1.7 7.8 0.00 0.00 0.00 51 1014.9
20260503003024 72 38 0.9 7.8 0.00 0.00 0.00 53 1014.9
20260503002510 72 50 2.6 7.0 0.00 0.00 0.00 51 1014.9
20260503002014 72 34 0.9 7.0 0.00 0.00 0.00 52 1014.9
20260503001524 72 303 0.9 7.0 0.00 0.00 0.00 51 1014.9
20260503001007 73 314 1.7 7.0 0.00 0.00 0.00 52 1015.0
20260503000511 73 250 2.6 6.1 0.00 0.00 0.00 51 1015.1
20260503000023 73 26 1.7 6.1 0.00 0.00 0.00 50 1015.1
20260502235508 74 319 1.7 5.2 0.00 0.00 0.00 50 1015.1
20260502235011 74 51 0.9 6.1 0.00 0.00 0.00 51 1015.1
20260502234521 74 225 1.7 5.2 0.00 0.00 0.00 51 1015.1
20260502234009 74 34 1.7 4.3 0.00 0.00 0.00 51 1015.3
20260502233510 73 86 0.9 5.2 0.00 0.00 0.00 51 1015.2
20260502233024 73 183 0.9 7.0 0.00 0.00 0.00 53 1015.4
20260502232509 73 214 0.9 8.7 0.00 0.00 0.00 52 1015.4
20260502232010 73 338 2.6 8.7 0.00 0.00 0.00 54 1015.4
20260502231524 74 9 0.9 7.8 0.00 0.00 0.00 52 1015.5
20260502231007 74 53 1.7 6.1 0.00 0.00 0.00 54 1015.5
20260502230511 73 250 0.9 6.1 0.00 0.00 0.00 56 1015.7
20260502230026 73 227 2.6 8.7 0.00 0.00 0.00 56 1015.7
20260502225510 73 265 0.9 8.7 0.00 0.00 0.00 57 1015.8
20260502225011 74 38 0.9 7.8 0.00 0.00 0.00 58 1015.8
20260502224524 73 24 2.6 7.8 0.00 0.00 0.00 58 1015.9
20260502224009 73 250 1.7 8.7 0.00 0.00 0.00 59 1015.9
20260502223502 73 32 1.7 8.7 0.00 0.00 0.00 62 1016.0
20260502223002 73 22 1.7 7.8 0.00 0.00 0.00 58 1016.1
20260502222502 73 165 0.9 7.0 0.00 0.00 0.00 61 1016.1
20260502222002 73 303 1.7 10.4 0.00 0.00 0.00 59 1016.2
20260502221506 73 265 1.7 10.4 0.00 0.00 0.00 61 1016.2
20260502221002 73 47 2.6 7.8 0.00 0.00 0.00 60 1016.2
20260502220502 73 13 0.9 10.4 0.00 0.00 0.00 63 1016.2
20260502220005 73 68 3.5 10.4 0.00 0.00 0.00 62 1016.3
20260502215502 73 303 0.9 10.4 0.00 0.00 0.00 62 1016.4
20260502215003 73 65 0.9 10.4 0.00 0.00 0.00 62 1016.4
20260502214504 74 54 4.3 10.4 0.00 0.00 0.00 60 1016.4
20260502214005 73 309 0.9 6.1 0.00 0.00 0.00 63 1016.5
20260502213505 73 47 0.9 5.2 0.00 0.00 0.00 62 1016.6
20260502213003 73 265 1.7 6.1 0.00 0.00 0.00 60 1016.6
20260502212504 72 309 1.7 6.1 0.00 0.00 0.00 65 1016.6
20260502212002 72 51 1.7 6.1 0.00 0.00 0.00 64 1016.7
20260502211508 72 312 1.7 7.8 0.00 0.00 0.00 62 1016.7
20260502211000 72 27 2.6 7.8 0.00 0.00 0.00 63 1016.8
20260502210502 72 212 0.9 7.0 0.00 0.00 0.00 65 1016.8
20260502210006 72 30 1.7 6.1 0.00 0.00 0.00 66 1016.8
20260502205502 72 74 1.7 6.1 0.00 0.00 0.00 67 1016.9
20260502205002 71 54 1.7 5.2 0.00 0.00 0.00 66 1017.0
20260502204504 71 221 0.9 7.0 0.00 0.00 0.00 65 1017.0
20260502204003 71 93 0.9 9.6 0.00 0.00 0.00 65 1017.0
20260502203503 71 49 5.2 9.6 0.00 0.00 0.00 63 1017.1
20260502203003 70 76 1.7 5.2 0.00 0.00 0.00 65 1017.1
20260502202504 70 330 1.7 8.7 0.00 0.00 0.00 68 1017.2
20260502202003 70 51 1.7 8.7 0.00 0.00 0.00 66 1017.3
20260502201503 70 93 2.6 8.7 0.00 0.00 0.00 65 1017.3
20260502201004 70 230 0.9 7.0 0.00 0.00 0.00 66 1017.2
20260502200503 70 30 2.6 11.3 0.00 0.00 0.00 66 1017.1
20260502200005 70 15 2.6 11.3 0.00 0.00 0.00 68 1017.2
20260502195503 70 338 1.7 7.8 0.00 0.00 0.00 66 1017.1
20260502195005 70 265 1.7 7.8 0.00 0.00 0.00 69 1017.2